Overview Statistics Trail Chart Weather Telemetry Raw packets
 

This is the latest recevied weather packets stored in our database for station/object OE5RBO. If no packets are shown the sender has not sent any weather packets the latest 10 day(s).

<< 44 45 46 47 48 49 >>
Time Temp. Humidity Pressure Rain* Wind** Luminosity Snow
1787851139 26.67° C 67% 1013.8 hPa 0 mm - - -
1787850539 26.67° C 67% 1013.9 hPa 0 mm - - -
1787849938 27.22° C 66% 1013.8 hPa 0 mm - - -
1787849338 27.22° C 66% 1014 hPa 0 mm - - -
1787848738 27.22° C 65% 1014 hPa 0 mm - - -
1787848137 27.78° C 65% 1014.2 hPa 0 mm - - -
1787847537 27.78° C 64% 1014.4 hPa 0 mm - - -
1787846336 28.33° C 63% 1014.4 hPa 0 mm - - -
1787845736 28.89° C 61% 1014.4 hPa 0 mm - - -
1787845135 28.89° C 60% 1014.4 hPa 0 mm - - -
1787844535 29.44° C 59% 1014.6 hPa 0 mm - - -
1787843935 30° C 57% 1014.6 hPa 0 mm - - -
1787842734 31.11° C 56% 1014.6 hPa 0 mm - - -
1787842134 31.11° C 54% 1014.6 hPa 0 mm - - -
1787841533 31.11° C 53% 1014.7 hPa 0 mm - - -
1787840933 31.11° C 52% 1014.8 hPa 0 mm - - -
1787840332 30.56° C 53% 1014.7 hPa 0 mm - - -
1787839732 31.11° C 52% 1014.8 hPa 0 mm - - -
1787839132 31.11° C 53% 1014.8 hPa 0 mm - - -
1787837931 30.56° C 55% 1014.9 hPa 0 mm - - -
1787836730 31.11° C 53% 1014.9 hPa 0 mm - - -
1787836130 31.67° C 51% 1015 hPa 0 mm - - -
1787835530 31.67° C 56% 1014.9 hPa 0 mm - - -
1787834929 31.11° C 56% 1015 hPa 0 mm - - -
1787834329 31.11° C 53% 1015.1 hPa 0 mm - - -

* Rain since midnight (hover to see other rain measurements)
** Current wind speed in m/s (hover to see current wind gust speed)